Regional Weather Roundup
Issued by NWS

Home | Current Version | Previous Version | Graphics & Text | Print | Product List | Glossary On
Versions: 1 2 3 4 5 6 7 8 9 10 11 12 13 14 15 16 17 18 19 20 21 22 23 24 25 26 27 28 29 30 31 32 33 34 35 36 37 38 39 40 41 42 43 44 45 46 47 48 49 50
000
ASUS43 KMPX 171410
RWRMN
WEATHER ROUNDUP FOR MINNESOTA
NATIONAL WEATHER SERVICE TWIN CITIES/CHANHASSEN MN
900 AM CDT THU AUG 17 2017


NOTE: "FAIR" INDICATES FEW OR NO CLOUDS BELOW 12,000 FEET WITH NO
SIGNIFICANT WEATHER AND/OR OBSTRUCTIONS TO VISIBILITY. N/A MEANS
CURRENT SKY AND/OR WEATHER CONDITIONS ARE NOT AVAILABLE.

MNZ060>063-068>070-171500-
   Twin Cities Metro

CITY           SKY/WX    TMP DP  RH WIND       PRES   REMARKS
TWIN CITIES    CLOUDY    68  65  90 NW10      29.56R
ST PAUL        CLOUDY    68  67  96 NW9       29.55R
CRYSTAL        LGT RAIN  66  63  90 NW16      29.55R FOG
BLAINE         LGT RAIN  68  68 100 NW5       29.56R FOG
LAKEVILLE      RAIN      66  66 100 W7        29.56R
EDEN PRAIRIE   CLOUDY    67  64  90 NW17      29.56R
SOUTH ST PAUL  CLOUDY    67  67  99 NW9       29.54R
LAKE ELMO      CLOUDY    68  68 100 N7        29.55R
$$
MNZ001>005-007-008-013>017-022>024-027-028-171500-
   Northwest Minnesota

CITY           SKY/WX    TMP DP  RH WIND       PRES   REMARKS
BEMIDJI        CLOUDY    60  59  98 N9        29.78R FOG
HALLOCK        SUNNY     57  57 100 CALM      29.84S
ROSEAU         CLOUDY    61  55  82 N5        29.83S
WARROAD        CLOUDY    63  61  94 N9        29.83S
THIEF RVR FALL CLOUDY    62  59  90 N13       29.83R
CROOKSTON      CLOUDY    63  61  94 N10       29.84R
FOSSTON        CLOUDY    61  59  94 N14       29.81S
DETROIT LAKES  CLOUDY    61  61 100 N13G21    29.80R
MOORHEAD       CLOUDY    63  61  94 N13G22    29.82R
PARK RAPIDS    CLOUDY    63  60  90 N15G25    29.75R
MAHNOMEN       CLOUDY    61  60  94 N13G24    29.80R
$$
MNZ006-009>011-018-025>026-171500-
   North Central Minnesota

CITY           SKY/WX    TMP DP  RH WIND       PRES   REMARKS
BAUDETTE       CLOUDY    61  60  97 NE8       29.80R
FLAG ISLAND    CLOUDY    63  57  82 NE5       29.82R
INTL FALLS     LGT RAIN  59  57  93 NE8       29.77F
WASKISH        CLOUDY    61  59  94 NE8       29.78S
BIG FORK       RAIN      61  57  88 N6        29.75S
LONGVILLE      LGT RAIN  61  59  94 NW3       29.73S
GRAND RAPIDS   LGT RAIN  60  59  96 N9        29.72F
CRANE LAKE     LGT RAIN  57  57 100 N3        29.76F
ORR            LGT RAIN  59  55  88 CALM      29.72S
COOK           RAIN      59  57  94 N5        29.73S
WALKER         RAIN      59  59  97 N10       29.75S
$$
MNZ012-019>021-037-171500-
   Northeast Minnesota

CITY           SKY/WX    TMP DP  RH WIND       PRES   REMARKS
DULUTH         DRZL/FOG  59  59 100 NE10      29.64S VSB 3/4
ELY            HVY RAIN  59  57  94 N7        29.71S
HIBBING        HVY RAIN  57  57 100 N8        29.70F FOG
EVELETH        RAIN      59  56  89 N7        29.71S
DULUTH HARBOR  CLOUDY    63  61  94 NE25G33   29.61F FOG
SILVER BAY     RAIN      61  61 100 NE10G20   29.63F
GRAND MARAIS     N/A     65  61  87 NE15G25   29.65F
G MARAIS ARPRT CLOUDY    57  54  88 NE13G20   29.71F
$$
MNZ029>031-032-039>041-046>048-054>057-064-171500-
   West Central Minnesota

CITY           SKY/WX    TMP DP  RH WIND       PRES   REMARKS
FERGUS FALLS   CLOUDY    63  63 100 NW16G25   29.78R FOG
WHEATON        CLOUDY    63  57  82 NW18G28   29.82R
MORRIS         CLOUDY    63  63 100 NW16G24   29.77R FOG
ALEXANDRIA     CLOUDY    65  65 100 NW15      29.75R
ELBOW LAKE     CLOUDY    62  62 100 W16G24    29.77S FOG
WADENA         CLOUDY    64  64 100 N12G18    29.74R
GLENWOOD       CLOUDY    66  64  94 NW14G20   29.74R
APPLETON       LGT RAIN  63  61  94 NW15G23   29.78R
BENSON         CLOUDY    64  63  94 N13G22    29.77R FOG
ORTONVILLE     CLOUDY    63  59  88 MISG      29.80R
MADISON        CLOUDY    64  64 100 NW14G22   29.80R
WILLMAR        CLOUDY    66  64  94 NW15G21   29.74R
$$
MNZ033>034-036-042>043-049>051-058-059-171500-
   Central Minnesota

CITY           SKY/WX    TMP DP  RH WIND       PRES   REMARKS
ST CLOUD       LGT RAIN  62  62 100 N12       29.64R FOG
SAUK CENTRE    CLOUDY    65  62  91 NW14      29.71R
PAYNESVILLE    CLOUDY    65  63  93 NW12G17   29.69R
AITKIN         CLOUDY    59  57  94 N12       29.67S
PINE RIVER     CLOUDY    59  57  94 N12       29.75S
BRAINERD       LGT RAIN  61  60  97 N14       29.69S FOG
STAPLES        DRIZZLE   63  63 100 N12       29.72R
LONG PRAIRIE   CLOUDY    63  61  94 W12G18    29.71R
LITTLE FALLS   LGT RAIN  61  61 100 N6        29.67S
LITCHFIELD     CLOUDY    64  64 100 NW18G26   29.67R
BUFFALO        CLOUDY    63  60  90 NW13G21   29.62R FOG
MAPLE LAKE     LGT RAIN  64  63  95 N14G21    29.63R
HUTCHINSON     DRIZZLE   65  64  96 NW14G22   29.67R
$$
MNZ037-044-045-052-053-171500-
   East Central Minnesota

CITY           SKY/WX    TMP DP  RH WIND       PRES   REMARKS
PRINCETON      RAIN      64  63  94 NW15G21   29.62R
MORA           RAIN      59  57  94 N5        29.62R
RUSH CITY      LGT RAIN  63  62  95 N9        29.58R
MOOSE LAKE     DRIZZLE   61  59  94 N8G17     29.61S
HINCKLEY       LGT RAIN  61  61 100 N12       29.60S
CLOQUET        DRIZZLE   61  57  88 N7        29.65R
MCGREGOR       CLOUDY    59  57  94 N13       29.66F
$$
MNZ071>073-080-081-089-090-097-098-171500-
   Southwest Minnesota

CITY           SKY/WX    TMP DP  RH WIND       PRES   REMARKS
MONTEVIDEO     CLOUDY    63  63 100 N13G20    29.77R FOG
GRANITE FALLS  CLOUDY    65  63  94 W15G23    29.78R
CANBY          CLOUDY    64  60  87 W16G25    29.82R
MARSHALL       CLOUDY    62  60  93 NW16      29.79R
REDWOOD FALLS  CLOUDY    66  62  87 NW14G23   29.73R
OLIVIA         CLOUDY    64  61  88 NW16G23   29.72R
PIPESTONE      CLOUDY    63  59  88 NW13G21   29.84R
WINDOM         MOSUNNY   64  63  94 W15G28    29.77S
WORTHINGTON    CLOUDY    63  60  90 W17       29.82R
JACKSON        CLOUDY    64  63  94 NW14G22   29.78S
TRACY          CLOUDY    63  62  98 NW17G23   29.80R
SLAYTON        CLOUDY    61  55  81 NW17G23   29.81R
$$
MNZ065>067-074>077-082>085-091>093-171500-
   South Central Minnesota

CITY           SKY/WX    TMP DP  RH WIND       PRES   REMARKS
MANKATO        LGT RAIN  65  63  93 NW21      29.64R
NEW ULM        CLOUDY    66  63  88 W21       29.68R
ST JAMES       CLOUDY    66  63  88 W20G29    29.72S
FAIRMONT       CLOUDY    67  63  87 W17G26    29.73S
GLENCOE        CLOUDY    67  65  94 NW17G25   29.62R
FARIBAULT      CLOUDY    64  63  94 W14G22    29.59R
OWATONNA       DRIZZLE   64  63  94 W16G22    29.61R
WASECA         DRIZZLE   63  61  94 W12G20    29.65R
ALBERT LEA     RAIN      66  66 100 W9G20     29.66R
$$
MNZ078>079-086>088-094>096-171500-
   Southeast Minnesota

CITY           SKY/WX    TMP DP  RH WIND       PRES   REMARKS
ROCHESTER      LGT RAIN  64  64 100 W20G29    29.60R FOG
RED WING       CLOUDY    68  64  88 W12G18    29.50R
STANTON        CLOUDY    68  65  89 W12       29.55R
DODGE CENTER   DRIZZLE   63  63 100 W16G23    29.60R
WINONA         CLOUDY    70  63  78 SW9G21    29.56S
AUSTIN         DRIZZLE   64  63  94 W14G26    29.64S
PRESTON        CLOUDY    64  62  91 SW16G28   29.63R FOG
$$
ABBREVIATIONS USED IN REMARKS
   TC - TEMPERATURES IN CELSIUS
  WCI - WIND CHILL INDEX
   HX - HEAT INDEX
  VSB - VISIBILITY
$$




USA.gov is the U.S. government's official web portal to all federal, state and local government web resources and services.